Grants-Milan, NM

1:05 AM MDT on October 22, 2017 (GMT -0600)
Grants-Milan Municipal

Weather History for KGNT - October, 2012

Change the Weather History Date:

Monday, October 22, 2012

  Actual Average Record
Temperature  
Mean Temperature 52 °F -  
Max Temperature 74 °F 64 °F 80 °F (2003)
Min Temperature 31 °F 31 °F 16 °F (1958)
Degree Days  
Heating Degree Days 12    
Growing Degree Days 2 (Base 50)    
Moisture  
Dew Point 28 °F    
Average Humidity 41    
Maximum Humidity 72    
Minimum Humidity 13    
Precipitation  
Precipitation 0.00 in - - ()
Sea Level Pressure  
Sea Level Pressure 30.09 in    
Wind  
Wind Speed 5 mph (West)    
Max Wind Speed 17 mph    
Max Gust Speed 25 mph    
Visibility 10 miles    
Events      
Averages and records for this station are not official NWS values.
T = Trace of Precipitation, MM = Missing Value Source: NWS Daily Summary

Daily Weather History Graph

Daily Weather History Graph

Search for Another Location

Airport or City:

Trip Planner

Search our weather history database for the weather conditions in past years. The results will help you decide how hot, cold, wet, or windy it might be!

Date:

Astronomy

Oct. 22, 2012 Rise Set
Actual Time 7:24 AM MDT 6:27 PM MDT
Civil Twilight 6:58 AM MDT 6:53 PM MDT
Nautical Twilight 6:28 AM MDT 7:22 PM MDT
Astronomical Twilight 5:59 AM MDT 7:52 PM MDT
Moon 2:23 PM MDT 12:29 AM MDT
Length of Visible Light 11h 54m
Length of Day
11h 03m
First Quarter, 57% of the Moon is Illuminated
Oct 22
First Quarter
Oct 29
Full
Nov 6
Last Quarter
Nov 13
New
Nov 20
First Quarter

Hourly Weather History & Observations

Time (MDT) Temp. Windchill Dew Point Humidity Pressure Visibility Wind Dir Wind Speed Gust Speed Precip Events Conditions
12:35 AM 53.8 °F - 29.3 °F 39% 30.07 in 10.0 mi NNE 3.5 mph - N/A   Clear
12:55 AM 49.5 °F - 28.8 °F 45% 30.07 in 10.0 mi NW 3.5 mph - N/A   Clear
1:15 AM 50.0 °F - 28.4 °F 43% 30.07 in 10.0 mi Calm Calm - N/A   Clear
1:35 AM 44.2 °F 40.3 °F 27.1 °F 51% 30.07 in 10.0 mi North 6.9 mph - N/A   Clear
1:55 AM 45.0 °F 42.6 °F 28.0 °F 52% 30.07 in 10.0 mi WNW 4.6 mph - N/A   Clear
2:15 AM 41.4 °F 39.4 °F 26.6 °F 56% 30.07 in 10.0 mi NW 3.5 mph - N/A   Clear
2:55 AM 38.8 °F 35.4 °F 25.5 °F 59% 30.07 in 10.0 mi NNW 4.6 mph - N/A   Clear
3:15 AM 40.3 °F 37.1 °F 27.0 °F 59% 30.07 in 10.0 mi WNW 4.6 mph - N/A   Clear
3:35 AM 39.6 °F 34.0 °F 27.1 °F 61% 30.08 in 10.0 mi NW 8.1 mph - N/A   Clear
3:55 AM 41.0 °F 37.1 °F 27.5 °F 59% 30.08 in 10.0 mi NW 5.8 mph - N/A   Clear
4:15 AM 40.6 °F 37.5 °F 27.9 °F 60% 30.07 in 10.0 mi WNW 4.6 mph - N/A   Clear
4:35 AM 41.7 °F 37.3 °F 29.1 °F 61% 30.07 in 10.0 mi WNW 6.9 mph - N/A   Clear
4:55 AM 40.6 °F - 27.3 °F 59% 30.08 in 10.0 mi Calm Calm - N/A   Clear
5:15 AM 35.2 °F - 25.0 °F 66% 30.09 in 10.0 mi Calm Calm - N/A   Clear
5:35 AM 32.7 °F 29.6 °F 23.5 °F 69% 30.09 in 10.0 mi NW 3.5 mph - N/A   Clear
5:55 AM 35.8 °F 30.9 °F 26.4 °F 69% 30.09 in 10.0 mi West 5.8 mph - N/A   Clear
6:15 AM 37.9 °F - 27.7 °F 67% 30.10 in 10.0 mi Calm Calm - N/A   Clear
6:35 AM 36.7 °F 32.9 °F 26.4 °F 66% 30.10 in 10.0 mi North 4.6 mph - N/A   Clear
6:55 AM 34.0 °F - 25.7 °F 72% 30.11 in 10.0 mi Calm Calm - N/A   Clear
7:15 AM 32.9 °F - 24.6 °F 72% 30.12 in 10.0 mi Calm Calm - N/A   Clear
7:35 AM 31.6 °F 27.0 °F 23.5 °F 72% 30.12 in 10.0 mi North 4.6 mph - N/A   Clear
7:55 AM 34.0 °F - 25.3 °F 71% 30.12 in 10.0 mi Calm Calm - N/A   Clear
8:15 AM 38.1 °F 35.7 °F 26.2 °F 62% 30.13 in 10.0 mi NNW 3.5 mph - N/A   Clear
8:35 AM 40.5 °F 38.4 °F 26.4 °F 57% 30.13 in 10.0 mi NW 3.5 mph - N/A   Clear
8:55 AM 43.7 °F 42.1 °F 27.1 °F 52% 30.14 in 10.0 mi NW 3.5 mph - N/A   Clear
9:15 AM 47.7 °F - 29.1 °F 49% 30.14 in 10.0 mi NW 4.6 mph - N/A   Clear
9:35 AM 50.2 °F - 30.0 °F 46% 30.14 in 10.0 mi North 3.5 mph - N/A   Clear
9:55 AM 52.9 °F - 30.7 °F 43% 30.14 in 10.0 mi Calm Calm - N/A   Clear
10:15 AM 56.8 °F - 32.7 °F 40% 30.14 in 10.0 mi Calm Calm - N/A   Clear
10:35 AM 60.6 °F - 35.6 °F 39% 30.12 in 10.0 mi NNE 3.5 mph - N/A   Clear
10:55 AM 62.2 °F - 35.1 °F 36% 30.12 in 10.0 mi Calm Calm - N/A   Clear
11:15 AM 64.4 °F - 34.7 °F 33% 30.12 in 10.0 mi SSW 5.8 mph - N/A   Clear
11:35 AM 65.1 °F - 34.3 °F 32% 30.12 in 10.0 mi SSE 5.8 mph - N/A   Clear
11:55 AM 68.2 °F - 31.6 °F 26% 30.11 in 10.0 mi WSW 6.9 mph 17.3 mph N/A   Clear
12:15 PM 69.6 °F - 30.7 °F 24% 30.10 in 10.0 mi WSW 10.4 mph 18.4 mph N/A   Clear
12:35 PM 69.3 °F - 28.9 °F 22% 30.09 in 10.0 mi South 6.9 mph - N/A   Clear
12:55 PM 71.1 °F - 27.1 °F 19% 30.08 in 10.0 mi SW 12.7 mph 18.4 mph N/A   Clear
1:15 PM 71.6 °F - 27.9 °F 20% 30.07 in 10.0 mi South 9.2 mph - N/A   Clear
1:35 PM 73.0 °F - 27.0 °F 18% 30.06 in 10.0 mi West 12.7 mph 19.6 mph N/A   Clear
1:55 PM 73.0 °F - 26.4 °F 18% 30.06 in 10.0 mi WSW 6.9 mph 20.7 mph N/A   Clear
2:15 PM 73.2 °F - 25.3 °F 17% 30.05 in 10.0 mi WNW 9.2 mph - N/A   Clear
2:35 PM 74.3 °F - 22.1 °F 14% 30.04 in 10.0 mi West 12.7 mph 19.6 mph N/A   Clear
2:55 PM 74.1 °F - 21.4 °F 14% 30.04 in 10.0 mi WSW 15.0 mph 21.9 mph N/A   Clear
3:15 PM 74.5 °F - 20.8 °F 13% 30.04 in 10.0 mi WSW 17.3 mph 25.3 mph N/A   Clear
3:35 PM 74.3 °F - 21.6 °F 14% 30.03 in 10.0 mi West 9.2 mph 23.0 mph N/A   Clear
3:55 PM 74.3 °F - 21.6 °F 14% 30.04 in 10.0 mi West 13.8 mph 20.7 mph N/A   Clear
4:15 PM 73.6 °F - 21.7 °F 14% 30.04 in 10.0 mi West 17.3 mph 24.2 mph N/A   Clear
4:35 PM 72.3 °F - 23.2 °F 16% 30.04 in 10.0 mi West 13.8 mph 24.2 mph N/A   Clear
4:55 PM 72.0 °F - 24.8 °F 17% 30.04 in 10.0 mi WSW 10.4 mph 20.7 mph N/A   Clear
5:15 PM 71.1 °F - 27.0 °F 19% 30.04 in 10.0 mi West 16.1 mph 23.0 mph N/A   Clear
5:35 PM 69.8 °F - 26.1 °F 19% 30.04 in 10.0 mi WSW 15.0 mph 20.7 mph N/A   Clear
5:55 PM 68.5 °F - 27.3 °F 21% 30.06 in 10.0 mi West 13.8 mph 23.0 mph N/A   Clear
6:15 PM 66.6 °F - 28.4 °F 24% 30.06 in 10.0 mi West 10.4 mph - N/A   Clear
6:35 PM 62.8 °F - 29.3 °F 28% 30.06 in 10.0 mi West 5.8 mph - N/A   Clear
6:55 PM 58.5 °F - 29.3 °F 33% 30.06 in 10.0 mi West 4.6 mph - N/A   Clear
7:15 PM 58.8 °F - 30.0 °F 34% 30.07 in 10.0 mi WSW 5.8 mph - N/A   Clear
7:35 PM 55.2 °F - 30.4 °F 39% 30.08 in 10.0 mi WSW 6.9 mph - N/A   Clear
7:55 PM 58.3 °F - 31.6 °F 36% 30.09 in 10.0 mi West 4.6 mph - N/A   Clear
8:15 PM 56.7 °F - 31.8 °F 39% 30.10 in 10.0 mi WSW 5.8 mph - N/A   Clear
8:35 PM 54.0 °F - 31.6 °F 43% 30.10 in 10.0 mi WSW 4.6 mph - N/A   Clear
8:55 PM 52.5 °F - 31.6 °F 45% 30.10 in 10.0 mi SW 4.6 mph - N/A   Clear
9:15 PM 51.3 °F - 31.1 °F 46% 30.10 in 10.0 mi Calm Calm - N/A   Clear
9:35 PM 52.3 °F - 31.6 °F 45% 30.10 in 10.0 mi WSW 6.9 mph - N/A   Clear
9:55 PM 52.2 °F - 31.6 °F 46% 30.10 in 10.0 mi WSW 6.9 mph - N/A   Clear
10:15 PM 54.9 °F - 32.0 °F 42% 30.10 in 10.0 mi WSW 5.8 mph - N/A   Clear
10:35 PM 59.9 °F - 32.0 °F 35% 30.11 in 10.0 mi West 8.1 mph 17.3 mph N/A   Clear
10:55 PM 53.8 °F - 32.0 °F 44% 30.11 in 10.0 mi WSW 6.9 mph - N/A   Clear
11:15 PM 52.0 °F - 31.8 °F 46% 30.11 in 10.0 mi WSW 3.5 mph - N/A   Clear
11:35 PM 48.6 °F - 31.6 °F 52% 30.11 in 10.0 mi West 4.6 mph - N/A   Clear
11:55 PM 51.4 °F - 32.0 °F 47% 30.11 in 10.0 mi West 5.8 mph - N/A   Clear